Change the Weather History Date:

Friday, October 26, 2012

  Actual Average (KJFX) Record (KJFX)
Temperature  
Mean Temperature 60 °F -  
Max Temperature 75 °F 71 °F 87 °F (1963)
Min Temperature 45 °F 42 °F 22 °F (1962)
Degree Days  
Heating Degree Days 5    
Growing Degree Days 10 (Base 50)    
Moisture  
Dew Point 54 °F    
Average Humidity 83    
Maximum Humidity 100    
Minimum Humidity 60    
Precipitation  
Precipitation 0.00 in - - ()
Sea Level Pressure  
Sea Level Pressure 30.08 in    
Wind  
Wind Speed 3 mph (NNW)    
Max Wind Speed 14 mph    
Max Gust Speed 22 mph    
Visibility 8 miles    
Events      
Averages and records for this station are not official NWS values.
T = Trace of Precipitation, MM = Missing Value Source: NWS Daily Summary

Daily Weather History Graph

Daily Weather History Graph

Search for Another Location

Airport or City:

Trip Planner

Search our weather history database for the weather conditions in past years. The results will help you decide how hot, cold, wet, or windy it might be!

Date:

Astronomy

Oct. 26, 2012 Rise Set
Actual Time 7:05 AM CDT 6:02 PM CDT
Civil Twilight 6:39 AM CDT 6:28 PM CDT
Nautical Twilight 6:10 AM CDT 6:57 PM CDT
Astronomical Twilight 5:41 AM CDT 7:26 PM CDT
Moon 4:13 PM CDT (10/26) 4:07 AM CDT (10/26)
Length of Visible Light 11h 48m
Length of Day
10h 57m
Waxing Gibbous, 91% of the Moon is Illuminated
Oct 26
Waxing Gibbous
Oct 29
Full
Nov 6
Last Quarter
Nov 13
New
Nov 20
First Quarter

Hourly Weather History & Observations

Time (CDT) Temp. Windchill Dew Point Humidity Pressure Visibility Wind Dir Wind Speed Gust Speed Precip Events Conditions
12:56 AM 54.0 °F - 54.0 °F 100% 30.08 in 4.0 mi Calm Calm - N/A   Clear
1:56 AM 54.0 °F - 54.0 °F 100% 30.07 in 5.0 mi Calm Calm - N/A   Clear
2:56 AM 52.0 °F - 52.0 °F 100% 30.07 in 5.0 mi Calm Calm - N/A   Clear
3:56 AM 52.0 °F - 52.0 °F 100% 30.07 in 4.0 mi Calm Calm - N/A   Clear
4:56 AM 50.9 °F - 50.9 °F 100% 30.08 in 4.0 mi Calm Calm - N/A   Clear
5:56 AM 50.9 °F - 50.9 °F 100% 30.07 in 4.0 mi Calm Calm - N/A   Clear
6:56 AM 50.0 °F - 50.0 °F 100% 30.07 in 6.0 mi Calm Calm - N/A   Clear
8:56 AM 61.9 °F - 59.9 °F 93% 30.13 in 10.0 mi WNW 6.9 mph - N/A   Scattered Clouds
9:56 AM 66.9 °F - 59.0 °F 76% 30.13 in 10.0 mi Calm Calm - N/A   Scattered Clouds
10:56 AM 70.0 °F - 59.9 °F 70% 30.13 in 10.0 mi Calm Calm - N/A   Partly Cloudy
11:56 AM 73.9 °F - 61.0 °F 64% 30.12 in 10.0 mi North 4.6 mph - N/A   Clear
12:56 PM 74.8 °F - 61.9 °F 64% 30.09 in 10.0 mi NNW 6.9 mph - N/A   Partly Cloudy
1:56 PM 75.9 °F - 61.0 °F 60% 30.06 in 2.5 mi Calm Calm - N/A   Haze
1:58 PM 75.2 °F - 60.8 °F 61% 30.02 in 1.0 mi Calm Calm - N/A   Haze
2:07 PM 75.2 °F - 60.8 °F 61% 30.02 in 2.5 mi Calm Calm - N/A   Haze
2:56 PM 73.9 °F - 61.0 °F 64% 30.05 in 10.0 mi NW 13.8 mph 19.6 mph N/A   Partly Cloudy
3:56 PM 65.8 °F - 59.0 °F 79% 30.04 in 10.0 mi Calm Calm - N/A   Scattered Clouds
4:39 PM 64.4 °F - 57.2 °F 77% 30.02 in 10.0 mi NNW 10.4 mph - N/A   Mostly Cloudy
4:56 PM 63.9 °F - 56.8 °F 78% 30.05 in 10.0 mi NNW 12.7 mph - N/A   Mostly Cloudy
5:56 PM 56.8 °F - 52.0 °F 84% 30.07 in 10.0 mi NNW 9.2 mph - N/A   Clear
6:56 PM 52.0 °F - 47.8 °F 86% 30.09 in 10.0 mi North 10.4 mph - N/A   Mostly Cloudy
7:12 PM 51.8 °F - 46.4 °F 82% 30.07 in 10.0 mi North 12.7 mph 19.6 mph N/A   Overcast
7:56 PM 50.0 °F - 45.9 °F 86% 30.11 in 10.0 mi North 12.7 mph 21.9 mph N/A   Overcast
8:56 PM 47.8 °F - 45.0 °F 90% 30.12 in 10.0 mi North 10.4 mph - N/A   Overcast
9:56 PM 45.9 °F 40.8 °F 43.9 °F 93% 30.13 in 8.0 mi North 10.4 mph 19.6 mph N/A   Overcast
10:56 PM 45.0 °F 39.7 °F 43.0 °F 93% 30.13 in 9.0 mi North 10.4 mph - N/A   Overcast
11:56 PM 45.0 °F 40.1 °F 41.9 °F 89% 30.12 in 10.0 mi North 9.2 mph - N/A   Overcast